PWSweather.com
Personal Weather Stations
Station Observations
KVAGLENALL
West Henrico, Glen Allen, VA 23060-6503

West HenricoGlen Allen, VA 23060-6503

Lat: 37.6554, Lon: -77.5693

Elevation: 273

Station Type: Davis Vantage Pro II

www.glenallenweather.com

High Low Average
Temperature 85.8°F29.9°F 66.6°F19.2°F 75.6°F24.2°F
Dew Point 67.1°F19.5°F 58.0°F14.4°F 63.2°F17.3°F
Winds 6.1 mph S9.8 mph S 0.1 mph 0.2 mph 0.9 mph 1.4 mph
Wind Gusts 9.1 mph14.6 mph 0.1 mph0.2 mph 2.4 mph3.9 mph
Humidity 90% 39% 68%
Pressure 30.05 in1017.60 in 29.95 in1014.20 in -
Precipitation 0.00 in0.00 in - -
Hour Temp Dew Point Humidity Winds Wind Gusts Pressure Precip Precip Rate Daily Precip Total
12:00 AM 71.7°F22.1°C 65.5°F18.6°C 81% 0.1 mph E0.2 kmh E 0.1 mph0.2 kmh 29.95 in1014.2 mb 0.00 in0.0 mm 0.00 in0.0 mm 0.00 in0.0 mm
12:15 AM 71.3°F21.8°C 65.5°F18.6°C 82% 0.1 mph E0.2 kmh E 0.1 mph0.2 kmh 29.95 in1014.2 mb 0.00 in0.0 mm 0.00 in0.0 mm 0.00 in0.0 mm
12:30 AM 71.1°F21.7°C 65.6°F18.7°C 83% 0.1 mph E0.2 kmh E 0.1 mph0.2 kmh 29.96 in1014.6 mb 0.00 in0.0 mm 0.00 in0.0 mm 0.00 in0.0 mm
12:45 AM 70.8°F21.6°C 65.3°F18.5°C 83% 0.1 mph E0.2 kmh E 1.1 mph1.8 kmh 29.95 in1014.2 mb 0.00 in0.0 mm 0.00 in0.0 mm 0.00 in0.0 mm
01:00 AM 71.3°F21.8°C 65.8°F18.8°C 83% 0.1 mph SSW0.2 kmh SSW 0.1 mph0.2 kmh 29.96 in1014.6 mb 0.00 in0.0 mm 0.00 in0.0 mm 0.00 in0.0 mm
01:15 AM 71.2°F21.8°C 66.1°F18.9°C 84% 0.1 mph SSW0.2 kmh SSW 0.1 mph0.2 kmh 29.96 in1014.6 mb 0.00 in0.0 mm 0.00 in0.0 mm 0.00 in0.0 mm
01:30 AM 71.0°F21.7°C 65.9°F18.8°C 84% 0.1 mph SSW0.2 kmh SSW 1.1 mph1.8 kmh 29.96 in1014.6 mb 0.00 in0.0 mm 0.00 in0.0 mm 0.00 in0.0 mm
01:45 AM 70.8°F21.6°C 65.7°F18.7°C 84% 0.1 mph SSW0.2 kmh SSW 0.1 mph0.2 kmh 29.96 in1014.6 mb 0.00 in0.0 mm 0.00 in0.0 mm 0.00 in0.0 mm
02:00 AM 70.7°F21.5°C 65.6°F18.7°C 84% 0.1 mph SSW0.2 kmh SSW 0.1 mph0.2 kmh 29.96 in1014.6 mb 0.00 in0.0 mm 0.00 in0.0 mm 0.00 in0.0 mm
02:15 AM 70.6°F21.4°C 66.2°F19.0°C 86% 0.1 mph SSW0.2 kmh SSW 0.1 mph0.2 kmh 29.95 in1014.2 mb 0.00 in0.0 mm 0.00 in0.0 mm 0.00 in0.0 mm
02:30 AM 70.4°F21.3°C 66.0°F18.9°C 86% 0.1 mph SSW0.2 kmh SSW 0.1 mph0.2 kmh 29.95 in1014.2 mb 0.00 in0.0 mm 0.00 in0.0 mm 0.00 in0.0 mm
02:45 AM 70.5°F21.4°C 66.4°F19.1°C 87% 1.0 mph SSW1.6 kmh SSW 2.1 mph3.4 kmh 29.95 in1014.2 mb 0.00 in0.0 mm 0.00 in0.0 mm 0.00 in0.0 mm
03:00 AM 70.7°F21.5°C 66.6°F19.2°C 87% 0.1 mph SSW0.2 kmh SSW 0.1 mph0.2 kmh 29.96 in1014.6 mb 0.00 in0.0 mm 0.00 in0.0 mm 0.00 in0.0 mm
03:15 AM 70.6°F21.4°C 66.8°F19.3°C 88% 0.1 mph SSW0.2 kmh SSW 0.1 mph0.2 kmh 29.96 in1014.6 mb 0.00 in0.0 mm 0.00 in0.0 mm 0.00 in0.0 mm
03:30 AM 70.3°F21.3°C 66.5°F19.2°C 88% 0.1 mph SSW0.2 kmh SSW 0.1 mph0.2 kmh 29.96 in1014.6 mb 0.00 in0.0 mm 0.00 in0.0 mm 0.00 in0.0 mm
03:45 AM 70.1°F21.2°C 66.7°F19.3°C 89% 0.1 mph SSW0.2 kmh SSW 0.1 mph0.2 kmh 29.96 in1014.6 mb 0.00 in0.0 mm 0.00 in0.0 mm 0.00 in0.0 mm
04:00 AM 70.0°F21.1°C 66.6°F19.2°C 89% 0.1 mph SSW0.2 kmh SSW 0.1 mph0.2 kmh 29.96 in1014.6 mb 0.00 in0.0 mm 0.00 in0.0 mm 0.00 in0.0 mm
04:15 AM 69.7°F20.9°C 66.3°F19.1°C 89% 0.1 mph SSW0.2 kmh SSW 1.1 mph1.8 kmh 29.96 in1014.6 mb 0.00 in0.0 mm 0.00 in0.0 mm 0.00 in0.0 mm
04:30 AM 69.2°F20.7°C 65.5°F18.6°C 88% 0.1 mph SSW0.2 kmh SSW 0.1 mph0.2 kmh 29.96 in1014.6 mb 0.00 in0.0 mm 0.00 in0.0 mm 0.00 in0.0 mm
04:45 AM 68.7°F20.4°C 65.1°F18.4°C 88% 0.1 mph SSW0.2 kmh SSW 0.1 mph0.2 kmh 29.96 in1014.6 mb 0.00 in0.0 mm 0.00 in0.0 mm 0.00 in0.0 mm
05:00 AM 68.2°F20.1°C 64.6°F18.1°C 88% 0.1 mph SSW0.2 kmh SSW 0.1 mph0.2 kmh 29.97 in1014.9 mb 0.00 in0.0 mm 0.00 in0.0 mm 0.00 in0.0 mm
05:15 AM 68.0°F20.0°C 64.7°F18.2°C 89% 0.1 mph SSW0.2 kmh SSW 0.1 mph0.2 kmh 29.97 in1014.9 mb 0.00 in0.0 mm 0.00 in0.0 mm 0.00 in0.0 mm
05:30 AM 67.5°F19.7°C 64.2°F17.9°C 89% 0.1 mph SSW0.2 kmh SSW 0.1 mph0.2 kmh 29.98 in1015.2 mb 0.00 in0.0 mm 0.00 in0.0 mm 0.00 in0.0 mm
05:45 AM 67.2°F19.6°C 63.9°F17.7°C 89% 0.1 mph NNW0.2 kmh NNW 0.1 mph0.2 kmh 29.98 in1015.2 mb 0.00 in0.0 mm 0.00 in0.0 mm 0.00 in0.0 mm
06:00 AM 67.0°F19.4°C 63.7°F17.6°C 89% 0.1 mph NNW0.2 kmh NNW 1.1 mph1.8 kmh 29.98 in1015.2 mb 0.00 in0.0 mm 0.00 in0.0 mm 0.00 in0.0 mm
06:15 AM 66.6°F19.2°C 63.3°F17.4°C 89% 0.1 mph NNW0.2 kmh NNW 0.1 mph0.2 kmh 29.99 in1015.6 mb 0.00 in0.0 mm 0.00 in0.0 mm 0.00 in0.0 mm
06:30 AM 66.6°F19.2°C 63.3°F17.4°C 89% 0.1 mph NNW0.2 kmh NNW 0.1 mph0.2 kmh 29.99 in1015.6 mb 0.00 in0.0 mm 0.00 in0.0 mm 0.00 in0.0 mm
06:45 AM 67.0°F19.4°C 64.0°F17.8°C 90% 0.1 mph E0.2 kmh E 0.1 mph0.2 kmh 30.00 in1015.9 mb 0.00 in0.0 mm 0.00 in0.0 mm 0.00 in0.0 mm
07:00 AM 67.8°F19.9°C 64.5°F18.1°C 89% 0.1 mph E0.2 kmh E 0.1 mph0.2 kmh 30.00 in1015.9 mb 0.00 in0.0 mm 0.00 in0.0 mm 0.00 in0.0 mm
07:15 AM 69.2°F20.7°C 65.2°F18.4°C 87% 0.1 mph E0.2 kmh E 3.1 mph5.0 kmh 30.00 in1015.9 mb 0.00 in0.0 mm 0.00 in0.0 mm 0.00 in0.0 mm
07:30 AM 70.4°F21.3°C 65.6°F18.7°C 85% 0.1 mph ENE0.2 kmh ENE 0.1 mph0.2 kmh 30.00 in1015.9 mb 0.00 in0.0 mm 0.00 in0.0 mm 0.00 in0.0 mm
07:45 AM 70.9°F21.6°C 65.8°F18.8°C 84% 0.1 mph ENE0.2 kmh ENE 0.1 mph0.2 kmh 30.00 in1015.9 mb 0.00 in0.0 mm 0.00 in0.0 mm 0.00 in0.0 mm
08:00 AM 71.4°F21.9°C 65.2°F18.4°C 81% 0.1 mph ENE0.2 kmh ENE 0.1 mph0.2 kmh 30.01 in1016.3 mb 0.00 in0.0 mm 0.00 in0.0 mm 0.00 in0.0 mm
08:15 AM 73.0°F22.8°C 64.6°F18.1°C 75% 0.1 mph NE0.2 kmh NE 3.1 mph5.0 kmh 30.01 in1016.3 mb 0.00 in0.0 mm 0.00 in0.0 mm 0.00 in0.0 mm
08:30 AM 74.1°F23.4°C 65.3°F18.5°C 74% 0.1 mph NNE0.2 kmh NNE 1.1 mph1.8 kmh 30.01 in1016.3 mb 0.00 in0.0 mm 0.00 in0.0 mm 0.00 in0.0 mm
08:45 AM 75.7°F24.3°C 64.8°F18.2°C 69% 1.0 mph NNE1.6 kmh NNE 2.1 mph3.4 kmh 30.02 in1016.6 mb 0.00 in0.0 mm 0.00 in0.0 mm 0.00 in0.0 mm
09:00 AM 76.2°F24.6°C 64.4°F18.0°C 67% 0.1 mph NNW0.2 kmh NNW 0.1 mph0.2 kmh 30.03 in1016.9 mb 0.00 in0.0 mm 0.00 in0.0 mm 0.00 in0.0 mm
09:15 AM 76.5°F24.7°C 65.6°F18.7°C 69% 0.1 mph NNW0.2 kmh NNW 2.1 mph3.4 kmh 30.02 in1016.6 mb 0.00 in0.0 mm 0.00 in0.0 mm 0.00 in0.0 mm
09:30 AM 76.8°F24.9°C 64.6°F18.1°C 66% 1.0 mph NNE1.6 kmh NNE 3.1 mph5.0 kmh 30.02 in1016.6 mb 0.00 in0.0 mm 0.00 in0.0 mm 0.00 in0.0 mm
09:45 AM 78.3°F25.7°C 63.8°F17.7°C 61% 0.1 mph NE0.2 kmh NE 2.1 mph3.4 kmh 30.03 in1016.9 mb 0.00 in0.0 mm 0.00 in0.0 mm 0.00 in0.0 mm
10:00 AM 78.5°F25.8°C 67.1°F19.5°C 68% 0.1 mph N0.2 kmh N 1.1 mph1.8 kmh 30.03 in1016.9 mb 0.00 in0.0 mm 0.00 in0.0 mm 0.00 in0.0 mm
10:15 AM 79.6°F26.4°C 64.5°F18.1°C 60% 3.0 mph NE4.8 kmh NE 4.1 mph6.6 kmh 30.03 in1016.9 mb 0.00 in0.0 mm 0.00 in0.0 mm 0.00 in0.0 mm
10:30 AM 79.5°F26.4°C 63.9°F17.7°C 59% 0.1 mph NNE0.2 kmh NNE 5.1 mph8.2 kmh 30.03 in1016.9 mb 0.00 in0.0 mm 0.00 in0.0 mm 0.00 in0.0 mm
10:45 AM 80.1°F26.7°C 66.8°F19.3°C 64% 0.1 mph NW0.2 kmh NW 4.1 mph6.6 kmh 30.03 in1016.9 mb 0.00 in0.0 mm 0.00 in0.0 mm 0.00 in0.0 mm
11:00 AM 81.0°F27.2°C 66.3°F19.1°C 61% 3.0 mph E4.8 kmh E 4.1 mph6.6 kmh 30.03 in1016.9 mb 0.00 in0.0 mm 0.00 in0.0 mm 0.00 in0.0 mm
11:15 AM 81.7°F27.6°C 65.0°F18.3°C 57% 1.0 mph NE1.6 kmh NE 6.1 mph9.8 kmh 30.03 in1016.9 mb 0.00 in0.0 mm 0.00 in0.0 mm 0.00 in0.0 mm
11:30 AM 82.4°F28.0°C 65.7°F18.7°C 57% 3.0 mph NE4.8 kmh NE 5.1 mph8.2 kmh 30.03 in1016.9 mb 0.00 in0.0 mm 0.00 in0.0 mm 0.00 in0.0 mm
11:45 AM 83.0°F28.3°C 61.9°F16.6°C 49% 2.0 mph NE3.2 kmh NE 7.1 mph11.4 kmh 30.03 in1016.9 mb 0.00 in0.0 mm 0.00 in0.0 mm 0.00 in0.0 mm
12:00 PM 83.2°F28.4°C 60.3°F15.7°C 46% 1.0 mph SW1.6 kmh SW 1.1 mph1.8 kmh 30.03 in1016.9 mb 0.00 in0.0 mm 0.00 in0.0 mm 0.00 in0.0 mm
12:15 PM 84.3°F29.1°C 63.1°F17.3°C 49% 0.1 mph NE0.2 kmh NE 1.1 mph1.8 kmh 30.03 in1016.9 mb 0.00 in0.0 mm 0.00 in0.0 mm 0.00 in0.0 mm
12:30 PM 83.5°F28.6°C 62.4°F16.9°C 49% 1.0 mph NNE1.6 kmh NNE 3.1 mph5.0 kmh 30.03 in1016.9 mb 0.00 in0.0 mm 0.00 in0.0 mm 0.00 in0.0 mm
12:45 PM 83.7°F28.7°C 63.7°F17.6°C 51% 3.0 mph SW4.8 kmh SW 9.1 mph14.6 kmh 30.03 in1016.9 mb 0.00 in0.0 mm 0.00 in0.0 mm 0.00 in0.0 mm
01:00 PM 84.0°F28.9°C 61.6°F16.4°C 47% 1.0 mph S1.6 kmh S 4.1 mph6.6 kmh 30.03 in1016.9 mb 0.00 in0.0 mm 0.00 in0.0 mm 0.00 in0.0 mm
01:15 PM 82.3°F27.9°C 65.1°F18.4°C 56% 1.0 mph ESE1.6 kmh ESE 1.1 mph1.8 kmh 30.02 in1016.6 mb 0.00 in0.0 mm 0.00 in0.0 mm 0.00 in0.0 mm
01:30 PM 83.6°F28.7°C 64.2°F17.9°C 52% 0.1 mph SW0.2 kmh SW 2.1 mph3.4 kmh 30.02 in1016.6 mb 0.00 in0.0 mm 0.00 in0.0 mm 0.00 in0.0 mm
01:45 PM 84.8°F29.3°C 61.1°F16.2°C 45% 6.1 mph S9.8 kmh S 6.1 mph9.8 kmh 30.02 in1016.6 mb 0.00 in0.0 mm 0.00 in0.0 mm 0.00 in0.0 mm
02:00 PM 83.8°F28.8°C 63.2°F17.3°C 50% 2.0 mph S3.2 kmh S 3.1 mph5.0 kmh 30.01 in1016.3 mb 0.00 in0.0 mm 0.00 in0.0 mm 0.00 in0.0 mm
02:15 PM 84.8°F29.3°C 61.1°F16.2°C 45% 1.0 mph S1.6 kmh S 6.1 mph9.8 kmh 30.00 in1015.9 mb 0.00 in0.0 mm 0.00 in0.0 mm 0.00 in0.0 mm
02:30 PM 84.5°F29.2°C 59.6°F15.3°C 43% 0.1 mph SW0.2 kmh SW 1.1 mph1.8 kmh 30.00 in1015.9 mb 0.00 in0.0 mm 0.00 in0.0 mm 0.00 in0.0 mm
02:45 PM 85.1°F29.5°C 60.8°F16.0°C 44% 0.1 mph S0.2 kmh S 5.1 mph8.2 kmh 30.00 in1015.9 mb 0.00 in0.0 mm 0.00 in0.0 mm 0.00 in0.0 mm
03:00 PM 85.8°F29.9°C 58.0°F14.4°C 39% 4.1 mph SW6.6 kmh SW 4.1 mph6.6 kmh 30.00 in1015.9 mb 0.00 in0.0 mm 0.00 in0.0 mm 0.00 in0.0 mm
03:15 PM 85.4°F29.7°C 59.1°F15.1°C 41% 3.0 mph S4.8 kmh S 5.1 mph8.2 kmh 29.99 in1015.6 mb 0.00 in0.0 mm 0.00 in0.0 mm 0.00 in0.0 mm
03:30 PM 85.2°F29.6°C 60.9°F16.1°C 44% 1.0 mph S1.6 kmh S 3.1 mph5.0 kmh 29.99 in1015.6 mb 0.00 in0.0 mm 0.00 in0.0 mm 0.00 in0.0 mm
03:45 PM 85.1°F29.5°C 59.5°F15.3°C 42% 2.0 mph S3.2 kmh S 6.1 mph9.8 kmh 29.98 in1015.2 mb 0.00 in0.0 mm 0.00 in0.0 mm 0.00 in0.0 mm
04:00 PM 84.5°F29.2°C 62.7°F17.1°C 48% 5.1 mph S8.2 kmh S 5.1 mph8.2 kmh 29.98 in1015.2 mb 0.00 in0.0 mm 0.00 in0.0 mm 0.00 in0.0 mm
04:15 PM 83.8°F28.8°C 61.5°F16.4°C 47% 1.0 mph S1.6 kmh S 4.1 mph6.6 kmh 29.97 in1014.9 mb 0.00 in0.0 mm 0.00 in0.0 mm 0.00 in0.0 mm
04:30 PM 84.1°F28.9°C 62.9°F17.2°C 49% 6.1 mph WSW9.8 kmh WSW 6.1 mph9.8 kmh 29.97 in1014.9 mb 0.00 in0.0 mm 0.00 in0.0 mm 0.00 in0.0 mm
04:45 PM 82.6°F28.1°C 62.1°F16.7°C 50% 3.0 mph WSW4.8 kmh WSW 5.1 mph8.2 kmh 29.97 in1014.9 mb 0.00 in0.0 mm 0.00 in0.0 mm 0.00 in0.0 mm
05:00 PM 82.2°F27.9°C 62.3°F16.8°C 51% 0.1 mph SW0.2 kmh SW 6.1 mph9.8 kmh 29.98 in1015.2 mb 0.00 in0.0 mm 0.00 in0.0 mm 0.00 in0.0 mm
05:15 PM 81.5°F27.5°C 62.7°F17.1°C 53% 2.0 mph SW3.2 kmh SW 6.1 mph9.8 kmh 29.98 in1015.2 mb 0.00 in0.0 mm 0.00 in0.0 mm 0.00 in0.0 mm
05:30 PM 80.7°F27.1°C 61.5°F16.4°C 52% 1.0 mph SSW1.6 kmh SSW 4.1 mph6.6 kmh 29.98 in1015.2 mb 0.00 in0.0 mm 0.00 in0.0 mm 0.00 in0.0 mm
05:45 PM 80.4°F26.9°C 61.7°F16.5°C 53% 2.0 mph N3.2 kmh N 5.1 mph8.2 kmh 29.98 in1015.2 mb 0.00 in0.0 mm 0.00 in0.0 mm 0.00 in0.0 mm
06:00 PM 80.1°F26.7°C 62.0°F16.7°C 54% 5.1 mph SSW8.2 kmh SSW 6.1 mph9.8 kmh 29.98 in1015.2 mb 0.00 in0.0 mm 0.00 in0.0 mm 0.00 in0.0 mm
06:15 PM 79.4°F26.3°C 60.8°F16.0°C 53% 2.0 mph S3.2 kmh S 4.1 mph6.6 kmh 29.98 in1015.2 mb 0.00 in0.0 mm 0.00 in0.0 mm 0.00 in0.0 mm
06:30 PM 79.2°F26.2°C 61.7°F16.5°C 55% 1.0 mph NW1.6 kmh NW 6.1 mph9.8 kmh 29.99 in1015.6 mb 0.00 in0.0 mm 0.00 in0.0 mm 0.00 in0.0 mm
06:45 PM 78.7°F25.9°C 62.2°F16.8°C 57% 0.1 mph SSW0.2 kmh SSW 1.1 mph1.8 kmh 29.99 in1015.6 mb 0.00 in0.0 mm 0.00 in0.0 mm 0.00 in0.0 mm
07:00 PM 78.3°F25.7°C 61.8°F16.6°C 57% 2.0 mph SSW3.2 kmh SSW 3.1 mph5.0 kmh 30.00 in1015.9 mb 0.00 in0.0 mm 0.00 in0.0 mm 0.00 in0.0 mm
07:15 PM 78.2°F25.7°C 62.2°F16.8°C 58% 0.1 mph SW0.2 kmh SW 3.1 mph5.0 kmh 29.99 in1015.6 mb 0.00 in0.0 mm 0.00 in0.0 mm 0.00 in0.0 mm
07:30 PM 77.9°F25.5°C 62.4°F16.9°C 59% 0.1 mph SSE0.2 kmh SSE 2.1 mph3.4 kmh 30.00 in1015.9 mb 0.00 in0.0 mm 0.00 in0.0 mm 0.00 in0.0 mm
07:45 PM 77.6°F25.3°C 61.2°F16.2°C 57% 0.1 mph S0.2 kmh S 3.1 mph5.0 kmh 30.00 in1015.9 mb 0.00 in0.0 mm 0.00 in0.0 mm 0.00 in0.0 mm
08:00 PM 76.9°F24.9°C 61.5°F16.4°C 59% 0.1 mph SW0.2 kmh SW 3.1 mph5.0 kmh 30.00 in1015.9 mb 0.00 in0.0 mm 0.00 in0.0 mm 0.00 in0.0 mm
08:15 PM 76.0°F24.4°C 61.6°F16.4°C 61% 0.1 mph S0.2 kmh S 2.1 mph3.4 kmh 30.01 in1016.3 mb 0.00 in0.0 mm 0.00 in0.0 mm 0.00 in0.0 mm
08:30 PM 75.1°F23.9°C 61.2°F16.2°C 62% 0.1 mph SW0.2 kmh SW 2.1 mph3.4 kmh 30.01 in1016.3 mb 0.00 in0.0 mm 0.00 in0.0 mm 0.00 in0.0 mm
08:45 PM 74.5°F23.6°C 60.6°F15.9°C 62% 1.0 mph S1.6 kmh S 3.1 mph5.0 kmh 30.02 in1016.6 mb 0.00 in0.0 mm 0.00 in0.0 mm 0.00 in0.0 mm
09:00 PM 73.6°F23.1°C 60.2°F15.7°C 63% 0.1 mph S0.2 kmh S 5.1 mph8.2 kmh 30.03 in1016.9 mb 0.00 in0.0 mm 0.00 in0.0 mm 0.00 in0.0 mm
09:15 PM 72.9°F22.7°C 60.4°F15.8°C 65% 1.0 mph SW1.6 kmh SW 1.1 mph1.8 kmh 30.02 in1016.6 mb 0.00 in0.0 mm 0.00 in0.0 mm 0.00 in0.0 mm
09:30 PM 72.3°F22.4°C 59.4°F15.2°C 64% 4.1 mph SSW6.6 kmh SSW 6.1 mph9.8 kmh 30.02 in1016.6 mb 0.00 in0.0 mm 0.00 in0.0 mm 0.00 in0.0 mm
09:45 PM 72.5°F22.5°C 59.6°F15.3°C 64% 0.1 mph S0.2 kmh S 4.1 mph6.6 kmh 30.03 in1016.9 mb 0.00 in0.0 mm 0.00 in0.0 mm 0.00 in0.0 mm
10:00 PM 71.5°F21.9°C 59.9°F15.5°C 67% 0.1 mph SSW0.2 kmh SSW 3.1 mph5.0 kmh 30.03 in1016.9 mb 0.00 in0.0 mm 0.00 in0.0 mm 0.00 in0.0 mm
10:15 PM 70.7°F21.5°C 60.0°F15.6°C 69% 0.1 mph SSW0.2 kmh SSW 1.1 mph1.8 kmh 30.03 in1016.9 mb 0.00 in0.0 mm 0.00 in0.0 mm 0.00 in0.0 mm
10:30 PM 70.2°F21.2°C 59.9°F15.5°C 70% 0.1 mph N0.2 kmh N 1.1 mph1.8 kmh 30.04 in1017.3 mb 0.00 in0.0 mm 0.00 in0.0 mm 0.00 in0.0 mm
10:45 PM 69.5°F20.8°C 60.0°F15.6°C 72% 0.1 mph SSE0.2 kmh SSE 0.1 mph0.2 kmh 30.04 in1017.3 mb 0.00 in0.0 mm 0.00 in0.0 mm 0.00 in0.0 mm
11:00 PM 68.6°F20.3°C 60.0°F15.6°C 74% 0.1 mph SSE0.2 kmh SSE 1.1 mph1.8 kmh 30.04 in1017.3 mb 0.00 in0.0 mm 0.00 in0.0 mm 0.00 in0.0 mm
11:15 PM 68.0°F20.0°C 59.8°F15.4°C 75% 0.1 mph NE0.2 kmh NE 3.1 mph5.0 kmh 30.04 in1017.3 mb 0.00 in0.0 mm 0.00 in0.0 mm 0.00 in0.0 mm
11:30 PM 67.3°F19.6°C 59.9°F15.5°C 77% 0.1 mph NE0.2 kmh NE 0.1 mph0.2 kmh 30.05 in1017.6 mb 0.00 in0.0 mm 0.00 in0.0 mm 0.00 in0.0 mm
11:45 PM 66.8°F19.3°C 59.8°F15.4°C 78% 0.1 mph NE0.2 kmh NE 0.1 mph0.2 kmh 30.05 in1017.6 mb 0.00 in0.0 mm 0.00 in0.0 mm 0.00 in0.0 mm